[[{"header":{"parameterUnit":"m.s-1","parameterCategory":1,"la1":30.2991,"la2":30.254,"lo1":-89.0895,"lo2":-89.0444,"dy":0.0017,"dx":0.0017,"nx":28,"ny":28,"refTime":"2024-04-23T03:00:00:Z","depth":0,"parameterNumber":2,"parameterNumberName":"U-component_of_WINDS"},"data":[0,0,0,0,0,0,0,0,0,0,0,0,0,0,0,0,0,0,0,0,0,0,0,0,0,0,0,0,0,0,0,0,0,0,0,0,0,0,0,0,0,0,0,0,0,0,0,0,0,0,0,0,0,0,0,0,0,0,-0.3388,-0.3387,0,-0.3325,-0.3324,-0.3323,-0.3282,-0.3282,-0.3282,-0.3282,-0.3217,-0.3216,-0.3214,0,0,0,0,0,0,0,0,0,0,0,0,0,-0.3473,-0.3471,-0.3388,-0.3387,-0.3386,-0.3325,-0.3324,-0.3323,-0.3282,-0.3282,-0.3282,-0.3281,-0.3218,-0.3216,-0.3214,0,0,0,0,0,0,0,0,0,0,0,0,0,-0.3425,-0.3471,-0.3388,-0.3358,-0.3355,-0.3325,-0.3324,-0.3323,-0.3282,-0.3282,-0.3282,-0.3281,-0.3218,-0.3216,-0.3214,-0.3208,0,0,-0.3207,-0.3206,0,0,0,0,0,0,0,0,-0.3428,-0.3422,-0.3364,-0.336,-0.3357,-0.3311,-0.333,-0.3284,-0.3282,-0.331,-0.3281,-0.3281,-0.3249,-0.3244,-0.3233,-0.3205,-0.3202,-0.3207,-0.3206,-0.3205,-0.3204,0,0,0,0,0,0,0,-0.3431,-0.3425,-0.3363,-0.3363,-0.3359,-0.3348,-0.3341,-0.3321,-0.3282,-0.3308,-0.3304,-0.3298,-0.3247,-0.3235,-0.3231,-0.3201,-0.3207,-0.3205,-0.3204,-0.3203,-0.3166,-0.3166,0,0,0,0,0,0,-0.3439,-0.3428,-0.3365,-0.3361,-0.3392,-0.3347,-0.3339,-0.3326,-0.3282,-0.3275,-0.3298,-0.3296,-0.3239,-0.3234,-0.3229,-0.3219,-0.3205,-0.3203,-0.3201,-0.3165,-0.3166,-0.3166,0,0,0,0,0,0,-0.3441,-0.3434,-0.3367,-0.3393,-0.3384,-0.3346,-0.3332,-0.3325,-0.3313,-0.3275,-0.3268,-0.3293,-0.3239,-0.3232,-0.3214,-0.3216,-0.3202,-0.32,-0.3165,-0.3166,-0.3166,-0.32,0,0,0,0,0,0,-0.3444,-0.3435,-0.3433,-0.3394,-0.3383,-0.3353,-0.3332,-0.3324,-0.331,-0.3306,-0.3269,-0.3262,-0.3238,-0.3217,-0.3211,-0.3213,-0.3198,-0.3165,-0.3165,-0.3166,-0.3199,-0.3202,-0.3204,0,0,0,0,0,-0.3447,-0.3445,-0.3433,-0.3425,-0.3379,-0.3354,-0.3347,-0.3319,-0.331,-0.3307,-0.3283,-0.3264,-0.3217,-0.3216,-0.3209,-0.321,-0.3164,-0.3165,-0.3166,-0.3197,-0.3201,-0.3204,0,0,0,0,0,0,-0.3485,-0.3439,-0.3425,-0.341,-0.3386,-0.3347,-0.3342,-0.3324,-0.3302,-0.33,-0.3266,-0.3258,-0.3243,-0.3225,-0.3224,-0.3202,-0.3188,-0.3188,-0.3215,-0.3218,-0.3221,-0.3225,-0.3196,0,0,0,0,0,-0.3491,-0.3474,-0.3435,-0.3426,-0.3414,-0.3381,-0.3368,-0.3349,-0.3322,-0.3312,-0.3286,-0.3261,-0.3241,-0.3229,-0.3208,-0.3196,-0.3187,-0.3193,-0.3196,-0.3199,-0.3199,-0.3191,-0.3193,-0.3169,-0.3169,-0.3169,0,0,-0.3504,-0.3477,-0.3469,-0.3433,-0.3412,-0.3395,-0.3372,-0.3356,-0.3343,-0.331,-0.3291,-0.3271,-0.3241,-0.3226,-0.3218,-0.321,-0.3203,-0.32,-0.3202,-0.32,-0.3192,-0.3194,-0.3196,-0.3169,-0.3169,-0.3169,0,0,-0.352,-0.3498,-0.3487,-0.3467,-0.3436,-0.3413,-0.3411,-0.3374,-0.336,-0.334,-0.3315,-0.3299,-0.3265,-0.3245,-0.323,-0.3239,-0.322,-0.3233,-0.3248,-0.3241,-0.3243,-0.3245,-0.3247,-0.3249,-0.3233,-0.3233,-0.3233,0,-0.354,-0.3514,-0.3484,-0.3469,-0.3454,-0.3423,-0.3412,-0.3394,-0.3358,-0.3348,-0.334,-0.3296,-0.3274,-0.3254,-0.3256,-0.3245,-0.3241,-0.3237,-0.3245,-0.3246,-0.3247,-0.325,-0.3251,-0.3235,-0.3235,-0.3235,-0.3234,0,-0.3541,-0.3523,-0.3518,-0.3484,-0.3468,-0.3456,-0.3424,-0.3412,-0.3393,-0.3372,-0.3353,-0.3325,-0.3298,-0.3292,-0.3274,-0.3269,-0.3265,-0.3252,-0.3237,-0.3252,-0.3254,-0.3254,-0.3237,-0.3237,-0.3236,-0.3236,0,0,-0.3578,-0.3527,-0.3526,-0.351,-0.3473,-0.3459,-0.3445,-0.3419,-0.3409,-0.3385,-0.3372,-0.3344,-0.3331,-0.3315,-0.3294,-0.3288,-0.3297,-0.3275,-0.3274,-0.328,-0.329,-0.33,-0.3301,-0.3284,-0.3284,-0.3285,-0.3292,0,-0.3588,-0.3561,-0.3533,-0.3516,-0.3499,-0.347,-0.3458,-0.3434,-0.3413,-0.3396,-0.3374,-0.3354,-0.3339,-0.3329,-0.3321,-0.3297,-0.3298,-0.3296,-0.3272,-0.3272,-0.328,-0.3302,-0.3313,-0.3322,-0.3293,-0.3293,-0.3293,0,-0.3596,-0.3573,-0.3554,-0.3519,-0.3511,-0.35,-0.3474,-0.3458,-0.3431,-0.3416,-0.3398,-0.3376,-0.336,-0.3348,-0.3325,-0.3325,-0.3313,-0.33,-0.3299,-0.3296,-0.3283,-0.3299,-0.3323,-0.3325,-0.3293,-0.3293,-0.3293,0,-0.3625,-0.3589,-0.3573,-0.3561,-0.3519,-0.3513,-0.3495,-0.3467,-0.3453,-0.343,-0.3421,-0.3397,-0.3384,-0.3365,-0.3338,-0.3332,-0.3318,-0.3303,-0.3306,-0.3306,-0.3304,-0.3304,-0.3326,-0.3297,-0.3297,-0.3297,-0.3297,0,-0.3638,-0.3628,-0.3586,-0.3576,-0.3563,-0.3532,-0.3521,-0.35,-0.3476,-0.3462,-0.3435,-0.3422,-0.3387,-0.337,-0.3349,-0.3333,-0.3327,-0.3315,-0.331,-0.3317,-0.3319,-0.3309,-0.3308,-0.3297,-0.3297,-0.3297,-0.3297,0,-0.3668,-0.364,-0.362,-0.3583,-0.3573,-0.3566,-0.3534,-0.3523,-0.3501,-0.3484,-0.3478,-0.3444,-0.3422,-0.3393,-0.3363,-0.3349,-0.3336,-0.3327,-0.3345,-0.3342,-0.3346,-0.3346,-0.3362,-0.3363,-0.3333,-0.3334,-0.3334,0,-0.3679,-0.367,-0.3632,-0.362,-0.3604,-0.3586,-0.3571,-0.354,-0.3527,-0.3495,-0.3488,-0.3465,-0.3445,-0.3412,-0.3385,-0.3362,-0.3352,-0.3359,-0.3348,-0.3356,-0.3352,-0.3353,-0.3352,-0.3362,-0.3362,-0.3363,-0.3363,0,-0.3701,-0.3687,-0.3667,-0.3643,-0.3626,-0.3605,-0.3583,-0.3576,-0.354,-0.3526,-0.3504,-0.3488,-0.3457,-0.3435,-0.3408,-0.339,-0.3371,-0.3367,-0.3366,-0.3374,-0.3385,-0.3379,-0.3352,-0.3367,-0.3366,-0.3366,-0.3366,-0.3366,-0.3721,-0.3712,-0.3684,-0.3662,-0.3643,-0.3623,-0.3611,-0.3588,-0.3569,-0.3541,-0.3524,-0.3503,-0.3476,-0.3438,-0.3421,-0.3404,-0.3396,-0.3395,-0.3395,-0.3395,-0.3398,-0.3388,-0.3399,-0.3399,-0.3399,-0.3399,-0.3399,0,-0.3741,-0.3722,-0.3703,-0.3673,-0.3656,-0.364,-0.3614,-0.3602,-0.3583,-0.356,-0.354,-0.3515,-0.3493,-0.3464,-0.344,-0.3432,-0.3423,-0.3427,-0.3427,-0.3423,-0.3406,-0.3409,-0.3435,-0.3435,-0.3435,-0.3435,-0.3435,-0.3435,-0.375,-0.3734,-0.3717,-0.369,-0.3671,-0.365,-0.3637,-0.3618,-0.3599,-0.3572,-0.3554,-0.3535,-0.3509,-0.3483,-0.3462,-0.3454,-0.3446,-0.3453,-0.3443,-0.3427,-0.3424,-0.3421,-0.3424,-0.3452,-0.3452,-0.3461,-0.3461,-0.3461]},{"header":{"parameterUnit":"m.s-1","parameterCategory":1,"la1":30.2991,"la2":30.254,"lo1":-89.0895,"lo2":-89.0444,"dy":0.0017,"dx":0.0017,"nx":28,"ny":28,"refTime":"2024-04-23T03:00:00:Z","depth":0,"parameterNumber":3,"parameterNumberName":"V-component_of_WINDS"},"data":[0,0,0,0,0,0,0,0,0,0,0,0,0,0,0,0,0,0,0,0,0,0,0,0,0,0,0,0,0,0,0,0,0,0,0,0,0,0,0,0,0,0,0,0,0,0,0,0,0,0,0,0,0,0,0,0,0,0,0.942,0.942,0,0.9444,0.9445,0.9445,0.9466,0.9466,0.9467,0.9467,0.9492,0.9492,0.9493,0,0,0,0,0,0,0,0,0,0,0,0,0,0.9391,0.9391,0.942,0.942,0.9421,0.9444,0.9445,0.9445,0.9466,0.9466,0.9467,0.9467,0.9492,0.9492,0.9493,0,0,0,0,0,0,0,0,0,0,0,0,0,0.9408,0.9392,0.942,0.9434,0.9436,0.9444,0.9445,0.9445,0.9466,0.9467,0.9467,0.9467,0.9491,0.9492,0.9493,0.9489,0,0,0.9495,0.9495,0,0,0,0,0,0,0,0,0.9407,0.9409,0.9432,0.9433,0.9435,0.9453,0.9444,0.946,0.9466,0.9454,0.9467,0.9467,0.9478,0.948,0.9484,0.9491,0.9492,0.9495,0.9495,0.9495,0.9496,0,0,0,0,0,0,0,0.9406,0.9408,0.943,0.9432,0.9434,0.9439,0.9442,0.9447,0.9464,0.9456,0.9457,0.946,0.9479,0.9483,0.9485,0.9492,0.9495,0.9495,0.9496,0.9496,0.9497,0.9496,0,0,0,0,0,0,0.9403,0.9407,0.9429,0.943,0.9422,0.9439,0.9442,0.9447,0.9464,0.9467,0.9459,0.9461,0.9482,0.9484,0.9486,0.9483,0.9495,0.9496,0.9496,0.9497,0.9497,0.9496,0,0,0,0,0,0,0.9402,0.9404,0.9428,0.9419,0.9423,0.9439,0.9444,0.9447,0.9451,0.9467,0.947,0.946,0.9482,0.9485,0.9488,0.9484,0.9496,0.9497,0.9498,0.9497,0.9496,0.9477,0,0,0,0,0,0,0.9401,0.9404,0.9403,0.9419,0.9423,0.943,0.9444,0.9447,0.9452,0.9454,0.9469,0.9471,0.9483,0.9487,0.9489,0.9485,0.9497,0.9498,0.9497,0.9497,0.9478,0.9476,0.9474,0,0,0,0,0,0.94,0.9397,0.9403,0.9405,0.9422,0.943,0.9432,0.9445,0.9451,0.9451,0.9461,0.9471,0.9484,0.9487,0.9489,0.9486,0.9498,0.9497,0.9497,0.9479,0.9476,0.9474,0,0,0,0,0,0,0.938,0.9399,0.9406,0.9408,0.9417,0.9433,0.9433,0.9442,0.9449,0.9451,0.9467,0.947,0.9472,0.9479,0.9482,0.9483,0.9493,0.9492,0.9478,0.9476,0.9474,0.9472,0.9498,0,0,0,0,0,0.9375,0.938,0.9397,0.9397,0.9401,0.9416,0.942,0.9429,0.9439,0.9443,0.9454,0.9463,0.9469,0.9473,0.948,0.9479,0.9483,0.9478,0.9475,0.9474,0.9473,0.9473,0.9471,0.9494,0.9494,0.9494,0,0,0.9367,0.9378,0.938,0.9393,0.9401,0.9405,0.9419,0.9423,0.9426,0.9444,0.9448,0.9456,0.9467,0.9469,0.947,0.9475,0.9468,0.9473,0.9471,0.9471,0.9472,0.947,0.9468,0.9493,0.9493,0.9493,0,0,0.9353,0.9362,0.9363,0.937,0.9383,0.9393,0.9393,0.9408,0.9414,0.9418,0.9431,0.9435,0.9445,0.9453,0.9458,0.9447,0.9456,0.9448,0.9437,0.9437,0.9435,0.9434,0.9429,0.9428,0.9448,0.9448,0.9448,0,0.934,0.9348,0.9362,0.9365,0.937,0.9386,0.9387,0.9394,0.9407,0.9411,0.9416,0.9429,0.9438,0.9441,0.9438,0.9442,0.9443,0.9447,0.9434,0.9433,0.9432,0.9428,0.9426,0.9447,0.9447,0.9447,0.9447,0,0.9331,0.9336,0.9335,0.9348,0.9353,0.9355,0.9369,0.9373,0.9382,0.9391,0.9395,0.9406,0.9415,0.9416,0.9425,0.9421,0.9424,0.9432,0.9441,0.9428,0.9425,0.9424,0.9445,0.9446,0.9446,0.9446,0,0,0.9305,0.9326,0.9325,0.9331,0.9346,0.935,0.9352,0.9361,0.9363,0.9372,0.9375,0.9383,0.939,0.9396,0.9406,0.9406,0.9396,0.9414,0.9414,0.941,0.9391,0.9385,0.9383,0.9402,0.9402,0.9402,0.939,0,0.9294,0.9299,0.9312,0.9314,0.9318,0.9333,0.9335,0.9344,0.9353,0.9358,0.9367,0.9373,0.9382,0.9386,0.9386,0.9397,0.9392,0.9398,0.9404,0.9404,0.94,0.9381,0.9375,0.9363,0.9389,0.9389,0.9388,0,0.9281,0.9289,0.9291,0.9305,0.9307,0.9309,0.9318,0.9322,0.9333,0.9339,0.9345,0.9356,0.9359,0.9368,0.9373,0.9376,0.938,0.9385,0.9385,0.9386,0.9395,0.9381,0.936,0.9358,0.9387,0.9387,0.9387,0,0.9261,0.9272,0.9275,0.928,0.9296,0.9297,0.9304,0.9315,0.9319,0.9327,0.933,0.9338,0.9342,0.9348,0.936,0.9366,0.9363,0.9373,0.9368,0.9368,0.9367,0.9367,0.9346,0.9369,0.9369,0.937,0.937,0,0.9247,0.9247,0.9266,0.9268,0.9269,0.9283,0.9284,0.9292,0.9301,0.9305,0.9318,0.9321,0.9337,0.9342,0.9351,0.9353,0.9355,0.936,0.9363,0.9359,0.9358,0.9361,0.9362,0.9369,0.9369,0.9369,0.9369,0,0.9225,0.9238,0.9242,0.9257,0.9261,0.9261,0.9274,0.9276,0.9285,0.9289,0.9291,0.9305,0.9311,0.9324,0.9334,0.934,0.934,0.9345,0.9336,0.9338,0.9332,0.9332,0.9312,0.931,0.9335,0.9335,0.9335,0,0.9215,0.9216,0.9231,0.9234,0.924,0.9245,0.925,0.9264,0.9268,0.928,0.928,0.9287,0.9294,0.9303,0.9314,0.9321,0.9326,0.9318,0.9327,0.9323,0.9326,0.9325,0.9325,0.9316,0.9316,0.9316,0.9316,0,0.9195,0.9202,0.9208,0.9216,0.9221,0.9228,0.9236,0.9237,0.9254,0.9257,0.9264,0.9269,0.9278,0.9285,0.9294,0.9301,0.9311,0.9313,0.9312,0.9308,0.9303,0.9305,0.9331,0.9313,0.9313,0.9313,0.9314,0.9314,0.9179,0.918,0.9191,0.9197,0.9205,0.9211,0.9214,0.9224,0.9229,0.9238,0.9246,0.9252,0.9262,0.9275,0.9281,0.9285,0.929,0.9289,0.9289,0.9288,0.9287,0.9302,0.9287,0.9287,0.9287,0.9287,0.9287,0,0.916,0.9168,0.9173,0.9184,0.9188,0.9197,0.9206,0.921,0.9214,0.9223,0.9229,0.9236,0.9242,0.9254,0.9262,0.9263,0.9268,0.9264,0.9264,0.9266,0.9282,0.9282,0.926,0.926,0.926,0.926,0.926,0.926,0.915,0.9153,0.916,0.9166,0.9174,0.918,0.9184,0.919,0.9197,0.9204,0.921,0.9218,0.9228,0.9236,0.9242,0.9245,0.9247,0.9243,0.9247,0.9262,0.9265,0.9267,0.9267,0.9243,0.9243,0.9231,0.9231,0.9231]}]]